This is the latest recevied weather packets stored in our database for station/object DG8SBT-10. If no packets are shown the sender has not sent any weather packets the latest 10 day(s).
| Time | Temp. | Humidity | Pressure | Rain* | Wind** | Luminosity | Snow |
|---|---|---|---|---|---|---|---|
| 1788194929 | 27.22° C | 38% | 1019.7 hPa | - | - | - | - |
| 1788194029 | 27.78° C | 37% | 1019.7 hPa | - | - | - | - |
| 1788193129 | 28.33° C | 36% | 1019 hPa | - | - | - | - |
| 1788192229 | 28.33° C | 36% | 1018.8 hPa | - | - | - | - |
| 1788191329 | 28.33° C | 36% | 1018.8 hPa | - | - | - | - |
| 1788190428 | 27.78° C | 36% | 1018.6 hPa | - | - | - | - |
| 1788189528 | 27.78° C | 35% | 1018.7 hPa | - | - | - | - |
| 1788188628 | 27.78° C | 36% | 1018.7 hPa | - | - | - | - |
| 1788187728 | 28.33° C | 35% | 1018.4 hPa | - | - | - | - |
| 1788186827 | 28.33° C | 35% | 1018.2 hPa | - | - | - | - |
| 1788185927 | 27.22° C | 36% | 1018.3 hPa | - | - | - | - |
| 1788185027 | 27.22° C | 35% | 1018.4 hPa | - | - | - | - |
| 1788184127 | 27.78° C | 34% | 1018.5 hPa | - | - | - | - |
| 1788183227 | 27.22° C | 36% | 1018.4 hPa | - | - | - | - |
| 1788182327 | 27.78° C | 36% | 1018.5 hPa | - | - | - | - |
| 1788181426 | 27.22° C | 36% | 1018.7 hPa | - | - | - | - |
| 1788180526 | 27.22° C | 37% | 1018.9 hPa | - | - | - | - |
| 1788179626 | 27.78° C | 37% | 1018.8 hPa | - | - | - | - |
| 1788178726 | 27.78° C | 37% | 1019 hPa | - | - | - | - |
| 1788177826 | 27.22° C | 37% | 1018.9 hPa | - | - | - | - |
| 1788176926 | 27.22° C | 39% | 1019.1 hPa | - | - | - | - |
| 1788176026 | 26.67° C | 40% | 1019 hPa | - | - | - | - |
| 1788175126 | 26.11° C | 41% | 1019.1 hPa | - | - | - | - |
| 1788174226 | 26.67° C | 41% | 1019.1 hPa | - | - | - | - |
| 1788173325 | 26.11° C | 41% | 1019.2 hPa | - | - | - | - |
* Rain since midnight (hover to see other rain measurements)
** Current wind speed in m/s (hover to see current wind gust speed)